Simultaneous Nadir Overpasses (SNOs) Predictions

Prediction of SNOs between FY3D and NOAA-19 Satellite Orbit:

Table of predicted SNOs for the next 14.0 days since TLE Epoch: 11/23/2019
Index Date (FY3D) Time (FY3D) Lat,Lon (FY3D) SZA (FY3D ) Date (NOAA-19) Time (NOAA-19) Lat,Lon (NOAA-19) SZA (NOAA-19 ) Distance(km) Time Diff (sec)
1 12/06/2019 07:05:40 79.76, 38.08 103.75 12/06/2019 07:04:35 79.79, 38.06 103.81 3.12 65
2 12/06/2019 07:56:25 -79.78,-154.71 76.23 12/06/2019 07:55:35 -79.78,-154.80 76.19 1.93 50
3 12/06/2019 08:47:10 79.79, 12.46 103.81 12/06/2019 08:46:36 79.79, 12.48 103.82 0.84 34
4 12/06/2019 09:37:54 -79.77, 179.95 76.22 12/06/2019 09:37:35 -79.80, 179.91 76.19 3.16 19
5 12/06/2019 10:28:39 79.79, -12.88 103.81 12/06/2019 10:28:36 79.80, -12.80 103.82 2.29 3
6 12/06/2019 11:19:24 -79.80, 154.33 76.17 12/06/2019 11:19:36 -79.79, 154.32 76.18 0.83 12
7 12/06/2019 12:10:09 79.82, -38.50 103.87 12/06/2019 12:10:37 79.80, -38.38 103.83 3.09 28
8 12/06/2019 13:00:53 -79.80, 128.99 76.16 12/06/2019 13:01:36 -79.81, 129.03 76.17 1.84 43
9 12/06/2019 13:51:38 79.81, -63.84 103.87 12/06/2019 13:52:37 79.82, -63.67 103.84 3.43 59




NCC Satellite Simultaneous Nadir Overpasses (SNOs) Prediction Service
